GSAT0226 (GALILEO 31)

Last updated on Sat Sep 05 2026 00:02:49 GMT+0000 (Coordinated Universal Time)

1 61183U 24167B 26247.56696507 .00000048 00000+0 00000+0 0 9994 2 61183 55.1670 219.1440 0002709 243.5627 293.6981 1.70473420 12204
UTC large
Height (km)
Speed (km/s)
/
Latitude / Longitude
Inclination (degrees)
Orbital Period (minutes)
Azimuth
Elevation
Range (km)
Doppler Factor

Next 0 passes for location: London (51.5072 / 0.1276)

No passes found over London.
GSAT0226 (GALILEO 31)